CSZ9515 ZGSZ-ZSPD

Flight info

Callsign CSZ9515
Flight time N/A
Altitude 32100
Route M078S1070 IDUMA W41 OMDUP G471 PLT A599 ELNEX G204 SHZ W58 XSY
Aircraft B38M/M-SDE2E3FGHIRWYZ/LB1

Departure

Time 2026-04-22 04:15
Airport Shenzhen Bao'an International Airport (ZGSZ)

Arrival

Time N/A
Airport Shanghai Pudong International Airport (ZSPD)
Time Latitude Longitude Altitude Speed Heading
2026-04-22 03:20 22.63218 113.80686 18 ft 0 kts 270°
2026-04-22 03:26 22.63218 113.80687 18 ft 0 kts 270°
2026-04-22 03:38 22.63218 113.80688 18 ft 0 kts 270°
2026-04-22 03:50 22.63218 113.80689 18 ft 0 kts 270°
2026-04-22 04:02 22.63218 113.80692 18 ft 2 kts 270°
2026-04-22 04:02 22.63218 113.80710 18 ft 2 kts 270°
2026-04-22 04:02 22.63218 113.80727 18 ft 2 kts 270°
2026-04-22 04:03 22.63218 113.80745 18 ft 2 kts 270°
2026-04-22 04:03 22.63217 113.80763 18 ft 2 kts 270°
2026-04-22 04:03 22.63214 113.80780 18 ft 2 kts 293°
2026-04-22 04:03 22.63206 113.80796 20 ft 2 kts 303°
2026-04-22 04:04 22.63197 113.80808 21 ft 1 kts 319°
2026-04-22 04:04 22.63196 113.80810 21 ft 0 kts 323°
2026-04-22 04:05 22.63195 113.80810 21 ft 0 kts 323°
2026-04-22 04:06 22.63200 113.80806 20 ft 2 kts 323°
2026-04-22 04:06 22.63218 113.80792 18 ft 3 kts 323°
2026-04-22 04:08 22.63220 113.80791 20 ft 0 kts 336°
2026-04-22 04:08 22.63225 113.80793 18 ft 1 kts 21°
2026-04-22 04:08 22.63243 113.80809 18 ft 6 kts 41°
2026-04-22 04:08 22.63272 113.80857 18 ft 10 kts 64°
2026-04-22 04:09 22.63306 113.80929 18 ft 12 kts 63°
2026-04-22 04:09 22.63346 113.81016 18 ft 14 kts 63°
2026-04-22 04:09 22.63377 113.81080 18 ft 15 kts 63°
2026-04-22 04:09 22.63466 113.81097 18 ft 13 kts 330°
2026-04-22 04:10 22.63553 113.81050 18 ft 16 kts 334°
2026-04-22 04:10 22.63664 113.80992 18 ft 19 kts 334°
2026-04-22 04:10 22.63789 113.80927 18 ft 21 kts 334°
2026-04-22 04:10 22.63923 113.80856 18 ft 22 kts 334°
2026-04-22 04:11 22.64063 113.80768 18 ft 24 kts 331°
2026-04-22 04:11 22.64165 113.80710 18 ft 25 kts 332°
2026-04-22 04:11 22.64325 113.80624 18 ft 27 kts 335°
2026-04-22 04:11 22.64552 113.80501 18 ft 29 kts 333°
2026-04-22 04:12 22.64720 113.80408 18 ft 27 kts 333°
2026-04-22 04:12 22.64837 113.80343 18 ft 28 kts 333°
2026-04-22 04:12 22.65032 113.80236 19 ft 11 kts 333°
2026-04-22 04:12 22.65067 113.80218 18 ft 9 kts 333°
2026-04-22 04:13 22.65117 113.80212 18 ft 5 kts 43°
2026-04-22 04:13 22.65135 113.80251 18 ft 7 kts 64°
2026-04-22 04:13 22.65160 113.80306 18 ft 9 kts 64°
2026-04-22 04:13 22.65183 113.80370 18 ft 6 kts 102°
2026-04-22 04:14 22.65148 113.80393 18 ft 7 kts 154°
2026-04-22 04:14 22.65098 113.80420 18 ft 10 kts 154°
2026-04-22 04:14 22.64874 113.80541 18 ft 75 kts 153°
2026-04-22 04:14 22.64183 113.80922 18 ft 145 kts 153°
2026-04-22 04:15 22.63147 113.81492 283 ft 179 kts 155°
2026-04-22 04:15 22.62040 113.82123 1290 ft 182 kts 157°
2026-04-22 04:15 22.60893 113.82772 2281 ft 190 kts 158°
2026-04-22 04:15 22.59757 113.83406 3477 ft 180 kts 158°
2026-04-22 04:16 22.58569 113.84056 3933 ft 203 kts 158°
2026-04-22 04:16 22.55822 113.85522 4074 ft 232 kts 157°
2026-04-22 04:16 22.54358 113.86313 4178 ft 237 kts 158°
2026-04-22 04:17 22.52887 113.87111 4295 ft 240 kts 158°
2026-04-22 04:17 22.51475 113.88091 4384 ft 247 kts 138°
2026-04-22 04:17 22.50623 113.89712 4501 ft 255 kts 107°
2026-04-22 04:17 22.50600 113.91649 4637 ft 263 kts 77°
2026-04-22 04:18 22.51345 113.93470 4774 ft 268 kts 64°
2026-04-22 04:18 22.52212 113.95268 4896 ft 271 kts 64°
2026-04-22 04:18 22.53080 113.97088 5053 ft 272 kts 63°
2026-04-22 04:18 22.53947 113.98914 5248 ft 274 kts 63°
2026-04-22 04:19 22.54979 114.00683 5897 ft 287 kts 44°
2026-04-22 04:19 22.56673 114.01855 6577 ft 294 kts 13°
2026-04-22 04:19 22.58655 114.02148 7483 ft 291 kts 359°
2026-04-22 04:19 22.60697 114.02354 8291 ft 296 kts
2026-04-22 04:20 22.62754 114.02588 9217 ft 300 kts
2026-04-22 04:20 22.64847 114.02818 10092 ft 304 kts
2026-04-22 04:20 22.67010 114.03050 10615 ft 322 kts
2026-04-22 04:20 22.69306 114.03290 11012 ft 340 kts
2026-04-22 04:21 22.71658 114.03051 11570 ft 340 kts 338°
2026-04-22 04:21 22.73868 114.02128 12319 ft 342 kts 334°
2026-04-22 04:21 22.76092 114.01172 13067 ft 345 kts 334°
2026-04-22 04:21 22.78331 114.00194 13814 ft 348 kts 334°
2026-04-22 04:22 22.80583 113.99200 14466 ft 350 kts 333°
2026-04-22 04:22 22.82843 113.98196 15127 ft 353 kts 333°
2026-04-22 04:22 22.85126 113.97179 15702 ft 356 kts 333°
2026-04-22 04:22 22.87435 113.96153 16287 ft 360 kts 335°
2026-04-22 04:23 22.89873 113.95552 16866 ft 370 kts 353°
2026-04-22 04:23 22.92469 113.95755 17463 ft 378 kts
2026-04-22 04:23 22.95091 113.96164 18004 ft 381 kts
2026-04-22 04:23 22.97729 113.96595 18506 ft 384 kts
2026-04-22 04:24 23.00382 113.97043 18972 ft 387 kts
2026-04-22 04:24 23.03051 113.97503 19444 ft 390 kts
2026-04-22 04:24 23.05738 113.97969 19889 ft 392 kts
2026-04-22 04:24 23.08443 113.98439 20352 ft 395 kts
2026-04-22 04:25 23.11135 113.98909 20799 ft 397 kts
2026-04-22 04:25 23.13888 113.99389 21243 ft 400 kts
2026-04-22 04:25 23.16650 113.99870 21696 ft 403 kts
2026-04-22 04:25 23.19428 114.00356 22153 ft 406 kts
2026-04-22 04:26 23.22230 114.00845 22592 ft 409 kts
2026-04-22 04:26 23.25051 114.01337 23039 ft 412 kts
2026-04-22 04:26 23.27865 114.01995 23470 ft 419 kts 17°
2026-04-22 04:26 23.30439 114.03446 23907 ft 426 kts 32°
2026-04-22 04:27 23.32806 114.05420 24238 ft 429 kts 34°
2026-04-22 04:27 23.35197 114.07386 24612 ft 431 kts 34°
2026-04-22 04:27 23.37584 114.09378 25001 ft 433 kts 34°
2026-04-22 04:27 23.39972 114.11395 25363 ft 436 kts 34°
2026-04-22 04:28 23.42364 114.13432 25754 ft 438 kts 34°
2026-04-22 04:28 23.44771 114.15486 26133 ft 440 kts 34°
2026-04-22 04:28 23.47184 114.17549 26527 ft 442 kts 34°
2026-04-22 04:28 23.49608 114.19621 26887 ft 444 kts 34°
2026-04-22 04:29 23.52045 114.21707 27255 ft 446 kts 34°
2026-04-22 04:29 23.54498 114.23807 27607 ft 448 kts 34°
2026-04-22 04:29 23.56929 114.25889 27960 ft 450 kts 34°
2026-04-22 04:29 23.59404 114.28010 28294 ft 452 kts 34°
2026-04-22 04:30 23.61885 114.30137 28633 ft 454 kts 34°
2026-04-22 04:30 23.64381 114.32266 28967 ft 456 kts 33°
2026-04-22 04:30 23.66928 114.34346 29241 ft 459 kts 33°
2026-04-22 04:30 23.69490 114.36441 29581 ft 461 kts 33°
2026-04-22 04:31 23.72059 114.38547 29901 ft 463 kts 33°
2026-04-22 04:31 23.74638 114.40665 30188 ft 464 kts 33°
2026-04-22 04:31 23.77228 114.42792 30463 ft 466 kts 32°
2026-04-22 04:31 23.79826 114.44928 30711 ft 468 kts 32°
2026-04-22 04:32 23.82407 114.47051 30926 ft 471 kts 32°
2026-04-22 04:32 23.87691 114.51399 30945 ft 477 kts 33°
2026-04-22 04:33 23.92997 114.55770 30953 ft 477 kts 32°
2026-04-22 04:33 23.98296 114.60141 30961 ft 477 kts 32°
2026-04-22 04:34 24.03601 114.64521 30940 ft 477 kts 32°
2026-04-22 04:34 24.08906 114.68907 30959 ft 478 kts 32°
2026-04-22 04:35 24.14204 114.73289 30966 ft 477 kts 32°
2026-04-22 04:35 24.19511 114.77685 30956 ft 479 kts 32°
2026-04-22 04:36 24.24802 114.82071 30955 ft 479 kts 32°
2026-04-22 04:36 24.30563 114.85379 30954 ft 461 kts
2026-04-22 04:37 24.36813 114.87054 30957 ft 462 kts
2026-04-22 04:37 24.43089 114.88644 30964 ft 463 kts
2026-04-22 04:38 24.49389 114.90204 30951 ft 464 kts
2026-04-22 04:38 24.55687 114.91765 30954 ft 463 kts
2026-04-22 04:39 24.61933 114.93311 30954 ft 463 kts
2026-04-22 04:39 24.68231 114.94871 30970 ft 463 kts
2026-04-22 04:40 24.74534 114.96435 30952 ft 464 kts
2026-04-22 04:40 24.80847 114.97970 30955 ft 464 kts
2026-04-22 04:41 24.87158 114.99507 30953 ft 464 kts
2026-04-22 04:41 24.93427 115.01035 30956 ft 464 kts
2026-04-22 04:42 24.99749 115.02577 30959 ft 466 kts
2026-04-22 04:42 25.06089 115.04126 30939 ft 465 kts
2026-04-22 04:43 25.12413 115.05672 30945 ft 466 kts
2026-04-22 04:43 25.18747 115.07223 30945 ft 465 kts
2026-04-22 04:44 25.25029 115.08762 30949 ft 466 kts
2026-04-22 04:44 25.31365 115.10265 30940 ft 462 kts
2026-04-22 04:44 25.34515 115.10309 30937 ft 446 kts 345°
2026-04-22 04:45 25.37462 115.09451 30951 ft 434 kts 333°
2026-04-22 04:45 25.43052 115.06863 30945 ft 434 kts 330°
2026-04-22 04:46 25.48555 115.04114 30951 ft 433 kts 330°
2026-04-22 04:46 25.54040 115.01308 30952 ft 435 kts 329°
2026-04-22 04:47 25.59538 114.98481 30959 ft 435 kts 329°
2026-04-22 04:47 25.65021 114.95658 30949 ft 434 kts 329°
2026-04-22 04:48 25.70467 114.92851 30962 ft 434 kts 329°
2026-04-22 04:48 25.76135 114.90502 30949 ft 447 kts 346°
2026-04-22 04:48 25.79292 114.90445 30973 ft 462 kts
2026-04-22 04:49 25.82466 114.91314 30995 ft 477 kts 15°
2026-04-22 04:49 25.85415 114.93116 30982 ft 494 kts 32°
2026-04-22 04:49 25.87891 114.95820 31004 ft 504 kts 45°
2026-04-22 04:50 25.92672 115.01534 30976 ft 505 kts 42°
2026-04-22 04:50 25.97483 115.07239 31007 ft 505 kts 42°
2026-04-22 04:51 26.02257 115.12914 30984 ft 504 kts 42°
2026-04-22 04:51 26.07049 115.18618 30969 ft 504 kts 42°
2026-04-22 04:52 26.11846 115.24336 30982 ft 505 kts 42°
2026-04-22 04:52 26.16606 115.30017 30995 ft 505 kts 42°
2026-04-22 04:53 26.21392 115.35737 30980 ft 505 kts 42°
2026-04-22 04:53 26.26177 115.41463 30992 ft 505 kts 42°
2026-04-22 04:54 26.30965 115.47199 30999 ft 504 kts 42°
2026-04-22 04:54 26.35746 115.52936 30986 ft 504 kts 42°
2026-04-22 04:55 26.40517 115.58667 30998 ft 504 kts 42°
2026-04-22 04:55 26.45290 115.64407 30982 ft 504 kts 42°
2026-04-22 04:56 26.50025 115.70107 31008 ft 503 kts 42°
2026-04-22 04:56 26.54775 115.75839 30995 ft 503 kts 43°
2026-04-22 04:57 26.59528 115.81578 31000 ft 503 kts 43°
2026-04-22 04:57 26.64273 115.87316 31010 ft 503 kts 43°
2026-04-22 04:58 26.69025 115.93069 30992 ft 503 kts 43°
2026-04-22 04:58 26.73722 115.98762 31012 ft 501 kts 44°
2026-04-22 04:59 26.78446 116.04498 30992 ft 501 kts 44°
2026-04-22 04:59 26.83168 116.10237 30995 ft 501 kts 44°
2026-04-22 04:59 26.85527 116.13108 31099 ft 502 kts 44°
2026-04-22 05:00 26.87895 116.15989 30949 ft 501 kts 44°
2026-04-22 05:00 26.92599 116.21702 31194 ft 498 kts 43°
2026-04-22 05:00 26.94970 116.24553 31448 ft 501 kts 44°
2026-04-22 05:01 26.97352 116.27425 31605 ft 506 kts 44°
2026-04-22 05:01 26.98940 116.29340 31852 ft 505 kts 44°
2026-04-22 05:01 27.01335 116.32231 32155 ft 506 kts 44°
2026-04-22 05:01 27.03728 116.35121 32475 ft 506 kts 45°
2026-04-22 05:02 27.06131 116.38024 32764 ft 507 kts 44°
2026-04-22 05:02 27.08528 116.40924 32993 ft 507 kts 45°
2026-04-22 05:02 27.10931 116.43831 33011 ft 508 kts 45°
2026-04-22 05:03 27.15722 116.49635 32998 ft 506 kts 44°
2026-04-22 05:03 27.20535 116.55447 32994 ft 508 kts 43°
2026-04-22 05:04 27.25476 116.61178 33077 ft 516 kts 43°
2026-04-22 05:04 27.30422 116.66948 33027 ft 516 kts 43°
2026-04-22 05:05 27.35401 116.72764 33015 ft 514 kts 43°
2026-04-22 05:05 27.40359 116.78562 32954 ft 515 kts 42°
2026-04-22 05:06 27.45326 116.84381 33009 ft 516 kts 42°
2026-04-22 05:06 27.50297 116.90212 32987 ft 516 kts 43°
2026-04-22 05:07 27.55314 116.96012 32999 ft 517 kts 42°
2026-04-22 05:07 27.60309 117.01785 33034 ft 517 kts 42°
2026-04-22 05:08 27.65322 117.07589 33009 ft 515 kts 42°